Location: Houghton
(47.1220°N, 88.5690°W)
Time: 11:17:54
(UTC-05:00)

ISS - Visible Passes

Search period start: 12 December 2017 00:00
Search period end: 22 December 2017 00:00
Orbit: 402 x 406 km, 51.6° (Epoch: 12 December)

Date Brightness Start Highest point End Pass type
(mag) Time Alt. Az. Time Alt. Az. Time Alt. Az.
12 Dec -3.4 19:05:49 10° WNW 19:09:04 59° SSW 19:09:26 54° S visible
13 Dec -3.9 18:13:30 10° WNW 18:16:49 87° NNE 18:19:51 12° ESE visible
13 Dec -1.1 19:50:39 10° W 19:52:33 17° SW 19:52:33 17° SW visible
14 Dec -1.9 18:57:55 10° W 19:00:50 29° SW 19:03:15 13° SSE visible
15 Dec -2.8 18:05:28 10° WNW 18:08:39 49° SSW 18:11:50 10° SE visible
16 Dec -0.7 18:50:31 10° W 18:52:26 15° SW 18:54:21 10° S visible
17 Dec -1.3 17:57:35 10° W 18:00:19 24° SW 18:03:03 10° SSE visible
19 Dec -0.2 17:50:26 10° WSW 17:51:48 12° SW 17:53:10 10° SSW visible
